Home   Weather   Lincoln   Past weeks
Flag for USA

Past Weather in Lincoln, Nebraska, USA — Yesterday and Last 2 Weeks

Now
48 °F

Partly sunny.


Feels Like: 44 °F
Forecast: 60 / 39 °F
Wind: 9 mph from North

Location: Lincoln Municipal Airport

Current Time: Mar 25, 2019 at 7:54:27 pm

Latest Report: Mar 25, 2019 at 6:54 pm


Visibility: 8 mi

Pressure: 30.35 "Hg

Humidity: 68%

Dew Point: 38 °F

Location of LincolnLocation

Past Weather in Lincoln — Graph

°F

Lincoln Temperature Yesterday

Maximum temperature yesterday: 50 °F (at 3:54 am)
Minimum temperature yesterday: 46 °F (at 11:54 am)
Average temperature yesterday: 48 °F

High & Low Weather Summary for the Past Weeks

 TemperatureHumidityPressure
High64 °F (Mar 22, 4:54 pm)100% (Mar 12, 3:01 pm)30.52 "Hg (Mar 12, 3:01 pm)
Low19 °F (Mar 11, 7:54 am)27% (Mar 18, 4:54 pm)28.95 "Hg (Mar 14, 1:54 am)
Average42 °F76%30.09 "Hg
* Reported Mar 10 5:54 pm — Mar 25 5:54 pm, Lincoln. Weather by CustomWeather, © 2019

Note: Actual official high and low records may vary slightly from our data, if they occured in-between our weather recording intervals... More about our weather records

Advertising

Lincoln Weather History for the Previous 24 Hours

Scroll right to see more
 ConditionsComfort  
Time TempWeatherWind HumidityBarometerVisibility
5:54 pm
Mon, Mar 25
50 °FOvercast.10 mph66%30.34 "Hg9 mi
5:33 pm51 °FPartly sunny.8 mph63%30.33 "Hg9 mi
5:06 pm52 °FPassing clouds.5 mph61%30.32 "Hg9 mi
4:54 pm53 °FPartly sunny.8 mph59%30.33 "Hg9 mi
3:54 pm52 °FPartly sunny.5 mph61%30.34 "Hg9 mi
2:54 pm49 °FOvercast.9 mph69%30.36 "Hg8 mi
1:54 pm50 °FOvercast.9 mph63%30.36 "Hg9 mi
12:54 pm50 °FOvercast.6 mph63%30.36 "Hg10 mi
12:36 pm50 °FOvercast.6 mph63%30.35 "Hg9 mi
11:54 am49 °FPartly sunny.10 mph69%30.36 "Hg7 mi
10:54 am46 °FBroken clouds.8 mph73%30.36 "Hg7 mi
10:13 am44 °FOvercast.12 mph82%30.34 "Hg6 mi
8:54 am41 °FFog.10 mph89%30.35 "Hg5 mi
8:37 am41 °FFog.9 mph89%30.33 "Hg5 mi
8:14 am41 °FFog.9 mph89%30.32 "Hg4 mi
7:54 am41 °FFog.8 mph93%30.33 "Hg4 mi
7:07 am41 °FFog.13 mph96%30.31 "Hg2 mi
6:54 am41 °FFog.12 mph93%30.32 "Hg4 mi
6:22 am42 °FFog.12 mph92%30.29 "Hg3 mi
5:54 am42 °FFog.16 mph92%30.29 "Hg4 mi
5:07 am43 °FFog.13 mph89%30.26 "Hg6 mi
4:37 am44 °FMostly cloudy.10 mph89%30.25 "Hg7 mi
3:54 am44 °FOvercast.10 mph89%30.25 "Hg8 mi
2:54 am45 °FOvercast.10 mph86%30.23 "Hg9 mi
1:54 am46 °FOvercast.9 mph89%30.22 "Hg7 mi
12:54 am47 °FFog.10 mph86%30.22 "Hg6 mi
12:29 am46 °FFog.10 mph93%30.21 "Hg4 mi
12:06 am46 °FFog.9 mph93%30.21 "Hg2 mi
11:39 pm
Sun, Mar 24
47 °FFog.12 mph86%30.21 "Hg6 mi
11:04 pm47 °FFog.14 mph86%30.20 "Hg6 mi
10:54 pm47 °FFog.13 mph86%30.21 "Hg6 mi
10:05 pm47 °FMostly cloudy.10 mph86%30.19 "Hg7 mi
9:54 pm47 °FMostly cloudy.12 mph86%30.19 "Hg7 mi
9:01 pm47 °FOvercast.8 mph86%30.16 "Hg7 mi
7:54 pm48 °FOvercast.13 mph86%30.14 "Hg7 mi
Weather by CustomWeather, © 2019

See weather overview